Zurück zum Katalog

CZ-6A DEB

AktivSSO
NORAD 54954·DEBRIS·🇨🇳 China

Gestartet Nov 11, 2022 von Taiyuan Satellite Launch Center

Loading…

Nächste Überflüge (nächste 24 Stunden)

TLE

AktuellSource: Space-Track

Epoche: Sep 14, 2026, 15:08 UTC

1 54954U 22151ST  26257.63106745  .00004212  00000-0  83126-3 0  9994
2 54954  98.6100 318.2454 0089923  33.7961 326.8925 14.60462268202648

Verfolge CZ-6A DEB in Echtzeit mit AllMySat

Download on the App Store